GFSGL_925_rhum_030.txt.gz
RH
76 79 78 81 80 74 70 62 64 54 61 49 67 72 73 74 76 78 78 72 72 72 74 70 68 50 43 43 42 41 39 38 44 37 43 43 43 45 50 47 48 50 53
73 76 78 78 80 81 73 68 67 69 55 64 57 64 70 74 76 79 82 73 72 78 74 72 74 64 50 47 49 42 41 40 40 45 44 47 45 44 47 58 59 55 55
67 73 74 76 78 77 80 72 69 70 72 64 67 66 70 74 76 79 81 81 70 74 81 82 72 73 67 49 48 49 43 44 48 44 49 48 53 55 53 52 59 63 52
56 64 69 72 74 75 74 78 73 72 74 70 72 71 73 76 77 78 80 82 82 73 74 81 82 72 71 68 49 45 50 48 48 53 51 47 49 50 56 59 65 63 63
44 56 62 67 70 71 73 73 78 75 73 77 73 73 76 77 78 78 77 80 83 82 75 74 78 80 72 69 66 56 47 56 56 55 56 52 48 48 67 62 58 55 58
40 44 52 59 65 70 70 72 74 79 78 76 80 77 75 78 76 75 76 77 80 82 82 77 76 78 80 75 72 65 56 54 58 55 59 58 52 46 49 54 54 57 63
40 44 46 53 60 66 70 71 74 76 79 79 80 80 79 76 75 73 73 75 76 79 82 81 78 77 76 78 75 71 64 63 50 50 52 48 49 46 49 53 58 58 59
38 41 48 50 59 63 69 72 74 76 78 81 81 81 80 80 76 74 72 71 74 75 77 80 80 76 76 80 78 74 71 66 63 61 54 48 47 58 56 57 63 63 65
42 44 44 52 56 64 69 74 75 77 79 80 81 81 83 82 79 77 74 72 72 73 75 76 80 81 76 75 83 82 79 77 66 64 62 66 62 53 66 70 75 76 77
43 45 47 48 55 59 67 72 76 78 79 81 81 82 82 84 83 80 77 78 72 71 72 75 75 79 80 77 81 86 87 84 82 75 66 68 66 70 71 74 72 76 71
42 44 48 52 54 59 62 71 76 79 79 80 80 81 81 81 84 84 82 81 78 72 69 70 74 74 76 78 76 83 86 86 85 81 78 78 71 66 69 70 70 69 67
30 44 50 54 60 60 65 72 77 79 81 81 82 82 80 81 81 82 84 83 82 80 74 66 66 69 71 74 76 78 83 86 90 89 89 91 88 83 80 75 77 73 69
42 48 51 58 65 60 68 74 78 80 81 81 81 79 78 77 75 77 79 82 84 84 82 77 68 65 63 69 73 75 82 87 92 92 89 93 88 83 76 86 80 77 73
52 55 57 63 68 68 68 74 75 75 77 77 72 71 70 68 66 67 67 73 78 82 84 84 81 74 68 69 69 75 82 90 94 98 93 94 89 88 82 82 78 76 80
56 59 62 62 65 70 70 64 71 69 64 63 66 64 63 59 74 78 73 75 85 79 83 89 88 88 85 83 88 93 95 97 99 98 96 96 84 85 86 83 77 81 76
65 63 60 58 60 64 66 69 63 62 66 64 70 70 74 80 75 73 72 72 72 75 87 89 91 93 93 89 88 98 99 99 98 98 96 92 92 91 85 83 81 74 72
62 54 48 44 46 63 62 61 65 82 71 69 61 58 58 57 54 54 54 56 60 80 84 90 92 94 97 95 93 96 97 99 99 100 99 98 97 97 97 93 76 67 62
57 53 48 46 50 54 52 50 47 48 54 62 63 61 61 64 68 70 62 48 70 96 98 94 96 98 98 98 98 98 97 99 100 100 100 99 88 94 96 79 68 61 57
58 60 50 53 53 52 52 49 49 48 57 63 64 62 68 69 72 74 81 90 99 99 99 99 89 86 95 100 100 99 98 98 97 99 97 99 100 99 91 79 64 57 56
66 61 58 58 58 55 53 52 51 51 50 65 62 70 71 72 78 79 84 92 98 100 100 100 99 99 100 99 95 99 100 98 98 98 98 99 99 92 73 64 56 56 55
68 70 62 65 68 70 68 68 69 69 68 73 72 76 84 82 75 76 77 75 80 86 92 97 92 85 81 75 94 100 100 100 99 98 99 99 91 70 60 56 53 49 45
68 68 68 70 72 75 77 80 88 90 92 92 92 94 90 92 94 89 84 82 81 81 86 86 89 90 89 79 84 80 77 88 90 96 98 92 76 61 54 53 50 47 44
65 72 71 72 72 76 76 74 83 92 98 100 100 100 100 100 100 100 100 96 93 92 92 91 96 97 97 98 98 100 99 99 95 90 78 67 60 53 48 47 46 43 39
70 68 68 70 68 67 71 73 73 80 83 94 100 100 100 100 100 100 99 98 97 94 96 92 95 93 93 96 97 94 92 88 85 74 66 58 52 49 47 44 40 36 34
51 56 56 56 60 66 67 68 71 75 77 84 93 97 100 100 100 100 100 100 97 94 88 89 92 93 97 90 89 84 78 77 76 70 58 52 50 49 45 42 40 38 35
50 46 46 49 54 56 58 64 68 76 80 86 93 98 100 100 100 100 100 100 100 98 97 90 73 86 88 85 79 76 66 67 60 54 53 48 46 46 43 41 40 38 34

GFSGL_925_rhum_033.txt.gz
RH
83 80 83 81 76 82 78 62 52 61 58 49 55 60 64 69 71 70 67 72 79 76 78 76 70 49 41 45 48 42 42 40 47 41 42 42 43 44 45 48 51 53 51
82 82 83 86 84 78 83 74 52 58 56 59 55 62 68 66 66 73 74 74 77 75 78 78 74 69 57 37 48 44 42 40 40 42 49 48 42 44 43 48 50 47 50
80 83 84 84 88 88 79 77 74 55 55 53 63 69 67 71 71 73 73 76 79 76 74 76 76 72 67 61 42 54 46 41 42 41 47 46 44 44 48 49 50 50 55
75 80 84 85 84 86 87 81 74 75 68 66 58 65 74 70 69 72 72 72 76 74 76 81 76 74 69 67 62 46 52 47 43 49 45 52 53 48 49 52 58 52 54
69 74 79 81 83 83 85 88 86 74 75 74 73 71 68 74 76 77 75 74 78 81 75 73 82 81 74 67 65 60 47 55 52 52 53 49 48 60 64 58 55 53 55
55 67 72 77 79 82 82 84 87 89 79 77 80 76 76 78 78 76 79 83 83 85 87 79 78 81 81 78 70 63 52 47 62 60 60 61 58 49 52 64 66 69 80
48 56 65 71 77 78 81 82 83 84 87 83 78 84 80 80 79 79 81 83 85 87 85 86 86 82 82 82 81 74 68 63 49 55 62 59 57 52 50 60 68 67 62
46 52 54 67 74 77 79 81 81 81 83 86 86 82 86 84 82 79 79 80 84 84 87 88 86 85 82 82 86 84 79 75 70 62 56 59 53 47 46 49 52 61 60
47 52 55 62 68 73 77 79 80 80 81 82 85 86 87 86 87 85 81 80 82 82 84 86 89 88 86 82 84 91 89 86 79 73 65 60 55 54 56 61 62 67 78
50 55 56 55 61 68 72 75 76 79 79 82 82 86 87 88 88 87 85 83 84 83 82 82 84 86 89 86 82 90 91 90 86 82 73 69 65 60 61 60 62 72 73
37 38 43 47 54 63 68 72 77 78 80 82 85 85 86 88 89 89 88 86 88 84 82 80 79 79 82 86 88 86 86 84 87 85 82 77 77 73 72 67 59 66 74
42 47 45 44 48 57 65 75 79 83 84 86 87 88 88 87 88 88 87 88 84 86 85 82 79 76 74 76 81 84 85 87 87 90 88 84 82 84 78 70 65 73 69
38 41 46 47 50 56 62 71 84 85 86 90 90 92 91 84 83 83 84 84 84 87 89 87 82 79 78 74 72 75 78 86 91 90 90 85 84 82 82 75 76 81 76
46 60 58 58 60 62 63 70 80 87 90 90 89 89 84 79 78 82 86 84 85 84 84 86 87 86 85 82 77 73 77 89 91 91 88 85 85 90 88 92 93 91 88
62 68 64 63 68 69 67 77 74 72 73 79 77 77 82 85 84 82 78 75 79 80 81 91 98 98 99 94 91 87 85 80 93 94 93 95 94 99 99 100 97 98 92
73 64 66 67 71 70 71 82 73 81 80 75 82 79 74 66 60 58 55 55 53 58 67 84 92 95 95 96 95 95 98 96 93 94 98 100 100 99 98 100 98 99 97
66 68 66 64 66 70 74 91 86 70 66 63 61 60 66 68 71 62 49 48 53 60 91 96 99 98 97 98 100 100 97 98 97 100 97 98 100 98 98 98 99 99 100
63 56 59 57 59 59 60 88 80 78 77 74 66 61 71 72 70 58 61 55 76 91 96 95 91 86 82 80 78 84 89 93 99 99 97 95 98 97 98 97 97 95 93
63 60 53 55 55 54 52 52 62 67 71 72 64 61 67 75 77 74 73 72 78 88 92 96 97 98 99 99 96 97 99 100 99 96 90 96 96 98 97 94 95 98 93
62 66 67 72 74 75 76 78 78 76 75 78 83 89 78 77 78 75 76 80 80 79 79 89 93 90 89 86 79 80 77 91 94 100 100 96 100 99 100 99 99 99 98
72 74 74 80 84 88 91 93 95 97 96 97 100 100 94 95 96 96 92 91 87 87 86 88 89 86 88 95 96 84 89 82 90 75 67 75 82 81 90 99 100 100 94
76 79 82 84 84 88 94 98 100 100 100 100 100 100 99 99 99 99 100 99 96 96 98 99 96 96 96 99 99 94 88 91 90 87 91 94 95 98 100 99 98 90 75
76 76 77 78 78 79 82 86 92 96 100 100 99 100 99 100 100 100 100 99 95 96 92 97 100 99 97 96 98 98 98 99 98 100 100 100 100 100 98 92 81 64 55
70 71 75 76 74 76 79 80 84 89 92 97 100 100 100 100 100 100 100 99 98 91 87 82 84 76 92 100 99 94 93 94 87 86 86 85 84 84 84 81 55 48 46
59 63 67 68 69 73 76 79 81 87 94 95 99 99 100 100 99 100 100 100 100 100 96 88 83 89 100 98 100 94 89 88 80 73 75 77 77 72 58 50 47 45 42
60 61 60 62 67 69 75 80 82 86 91 90 89 89 91 95 97 100 100 100 100 100 100 100 100 90 88 82 92 94 86 86 78 71 67 60 55 48 45 43 40 38 37

GFSGL_925_rhum_036.txt.gz
RH
80 79 76 76 75 82 73 67 61 60 63 61 60 59 62 65 70 73 70 71 77 76 76 75 66 50 44 44 47 49 48 45 48 40 43 45 43 44 44 47 48 49 49
80 82 83 81 78 77 82 77 68 60 56 68 61 61 62 64 68 72 71 71 78 85 80 77 76 72 63 40 44 46 48 46 44 44 40 44 45 44 43 45 46 48 50
78 81 84 85 85 79 77 83 79 71 63 56 68 64 61 64 68 69 69 70 70 73 78 79 76 76 73 68 46 44 46 49 46 45 41 40 47 46 46 47 47 49 50
80 82 82 86 87 83 78 77 84 80 73 62 58 63 69 66 66 66 66 69 69 71 73 76 75 76 77 73 69 58 45 50 54 51 48 46 48 50 47 49 52 51 51
80 82 84 82 84 86 87 82 77 80 77 74 63 60 66 68 75 73 70 67 69 74 74 74 77 76 74 72 73 70 64 61 56 60 61 56 55 54 57 55 57 52 50
76 80 80 86 84 86 88 91 86 82 79 78 76 74 70 70 76 72 73 76 75 77 78 75 72 76 78 78 79 76 73 68 69 66 66 68 56 52 51 58 60 67 72
72 74 79 82 87 88 86 90 93 92 88 82 79 81 82 80 78 79 78 81 84 85 84 82 81 79 78 80 80 84 82 78 74 66 63 60 58 55 53 60 68 68 64
60 70 74 80 83 86 89 88 91 90 94 94 88 82 86 82 79 79 81 83 88 88 88 88 88 87 84 81 85 93 88 86 82 76 66 61 57 54 54 50 51 57 62
52 55 68 74 80 84 86 88 87 89 88 90 92 91 86 85 86 82 81 84 88 90 90 89 90 91 90 89 89 93 94 85 86 83 80 76 69 63 58 59 64 76 78
49 53 56 67 72 78 82 82 84 84 85 85 85 88 90 91 86 86 87 85 90 90 89 90 90 91 92 92 91 92 95 95 93 93 89 85 81 76 68 63 62 71 66
50 49 53 56 62 70 75 79 80 84 83 83 85 85 87 90 90 90 89 90 93 91 90 88 86 86 86 88 90 94 91 84 87 92 94 91 88 87 80 71 69 65 67
51 54 56 58 61 66 70 75 78 79 83 84 85 88 89 88 89 88 89 89 88 94 93 90 87 85 84 83 83 85 87 90 94 93 99 97 93 93 89 84 80 74 69
54 53 50 55 61 64 69 74 80 82 81 86 89 92 93 91 87 86 85 87 88 91 94 93 88 87 86 85 84 83 82 83 100 99 98 95 92 93 94 90 90 89 86
64 54 53 55 60 64 68 74 82 90 91 90 96 98 97 94 85 86 88 90 92 92 91 91 92 94 95 97 97 94 90 88 95 98 98 97 97 95 100 96 96 100 100
70 72 66 67 69 74 81 84 86 81 82 92 93 93 98 96 90 90 89 88 85 84 86 85 83 83 85 96 100 100 99 99 98 98 100 99 99 100 99 100 100 98 98
74 76 79 78 80 80 84 95 98 90 88 91 87 86 86 86 84 78 77 73 66 63 71 80 86 90 96 98 99 100 98 94 97 99 100 100 97 97 97 100 100 99 96
75 65 75 76 78 89 91 84 78 73 76 78 76 74 70 63 57 51 50 51 51 66 79 82 89 94 93 87 83 80 79 68 66 70 89 94 94 92 96 88 98 98 96
62 66 74 72 69 90 88 79 77 79 84 80 76 75 71 66 65 65 63 62 68 76 85 91 95 99 100 97 79 81 83 79 79 85 90 98 99 100 97 94 88 93 97
61 70 72 74 80 96 93 83 85 81 84 87 86 83 83 81 79 80 81 80 82 82 81 79 85 90 89 87 88 88 86 89 91 77 86 93 80 84 99 100 98 95 94
76 72 72 79 82 93 94 94 97 98 100 100 100 98 91 88 94 96 99 98 97 95 94 92 91 92 90 91 95 96 96 91 93 81 82 79 84 99 99 97 92 98 100
79 81 82 87 94 99 100 100 100 100 100 100 100 100 95 99 100 100 100 98 99 100 100 99 100 100 100 99 100 98 99 97 95 86 77 89 97 100 92 100 99 100 100
84 87 90 95 97 100 100 99 100 100 100 100 100 100 92 97 99 100 100 100 100 96 90 97 96 89 92 99 99 99 96 90 91 99 94 84 93 98 98 99 100 97 96
86 86 86 88 90 91 95 98 99 100 100 100 100 99 98 99 99 99 99 100 99 95 89 85 85 84 92 100 100 100 99 87 88 90 98 95 98 95 96 98 96 92 89
80 81 83 86 87 91 95 98 99 99 100 100 100 100 100 100 100 100 100 100 100 100 100 99 99 98 97 100 99 98 97 98 98 94 100 99 99 94 87 86 86 84 83
74 76 78 82 85 89 91 93 94 95 96 95 94 93 95 98 99 100 100 99 100 99 99 99 99 99 99 93 91 94 96 93 90 89 91 93 96 92 86 85 79 72 67
72 72 75 77 82 86 90 90 90 88 87 83 79 79 79 72 65 78 96 99 99 99 99 99 99 99 99 100 98 94 84 89 90 84 82 84 82 82 82 80 68 58 56

GFSGL_925_rhum_042.txt.gz
RH
71 71 72 71 69 62 59 57 57 57 56 56 61 61 59 59 62 68 70 72 77 75 72 75 73 73 71 68 67 64 58 61 66 57 52 47 44 41 41 43 44 46 46
70 72 71 73 71 69 68 61 60 59 57 55 61 63 61 60 61 66 67 67 71 76 74 73 70 72 74 74 76 72 64 60 61 63 54 52 50 47 44 41 43 44 44
74 75 76 77 78 77 72 67 63 61 59 59 61 63 62 61 62 63 66 65 66 68 71 72 69 69 73 74 73 76 73 71 63 64 64 58 53 49 49 47 43 42 42
73 76 76 77 79 79 72 71 67 62 61 61 61 62 62 60 65 64 67 71 70 68 67 70 70 68 66 69 72 73 74 77 80 80 74 68 61 50 53 54 53 48 45
69 76 76 78 79 76 78 75 70 68 62 62 63 64 64 63 60 64 68 66 68 69 68 68 69 67 65 64 67 66 71 78 86 88 88 83 78 75 67 58 59 54 54
67 74 76 79 79 78 76 74 75 75 72 71 72 70 67 64 62 59 58 67 70 71 70 65 63 65 66 66 65 66 74 80 87 87 83 81 81 79 72 70 71 70 65
70 73 78 82 85 83 81 80 79 81 80 82 78 77 77 70 60 60 61 61 69 70 70 71 72 68 66 66 66 67 69 75 84 88 89 89 86 84 80 79 75 72 71
75 77 81 86 89 90 91 89 88 86 85 86 86 82 80 77 68 61 62 69 71 72 71 73 77 77 78 76 75 78 79 80 80 82 88 87 89 89 89 86 82 78 77
79 81 83 85 88 91 93 93 92 94 91 87 86 85 85 82 77 72 74 78 84 82 85 83 83 84 82 82 86 90 88 91 89 80 78 76 80 82 90 92 90 80 77
77 80 84 86 86 88 87 88 89 93 95 97 93 88 83 81 77 74 80 86 94 94 93 93 92 92 91 88 91 95 99 97 94 96 94 87 84 85 86 92 97 99 96
72 78 78 81 84 85 88 88 90 93 95 98 99 95 92 88 85 84 85 88 94 95 97 96 96 90 87 88 90 95 99 91 98 99 100 100 99 97 95 93 93 98 100
63 70 75 80 84 85 84 89 91 94 98 99 100 100 97 92 88 85 84 87 86 94 95 94 89 86 88 90 93 94 93 94 100 100 100 100 100 98 100 100 100 100 99
54 60 64 72 77 80 85 89 94 95 96 98 98 98 98 94 89 87 84 86 87 91 91 90 92 96 97 98 98 98 99 100 100 100 100 100 100 100 99 99 96 99 99
58 58 58 63 69 78 80 83 88 92 95 92 96 97 96 93 90 88 89 91 93 95 93 93 99 100 100 100 100 100 100 99 100 100 100 100 99 95 91 76 91 93 96
80 77 69 70 72 73 76 81 85 86 86 89 90 93 99 100 90 92 94 94 92 91 95 99 100 100 100 99 96 95 100 100 98 93 82 87 78 73 77 91 99 100 99
75 80 91 86 90 90 87 95 97 92 86 85 88 87 88 89 93 100 99 100 100 100 100 100 99 95 92 92 95 93 90 84 77 76 75 76 82 98 98 93 95 99 99
76 77 78 100 100 100 100 100 100 100 100 98 97 99 100 96 100 99 96 93 93 91 84 84 83 82 84 86 87 84 80 77 80 85 85 82 90 97 99 99 99 97 97
71 76 73 98 99 100 99 95 94 91 90 90 83 85 81 75 69 68 68 72 74 76 83 92 99 98 96 91 88 89 89 92 94 95 93 87 83 84 94 94 97 99 100
78 85 90 100 100 97 91 89 92 90 92 98 90 85 82 79 77 76 71 73 92 99 99 99 97 96 97 99 100 100 99 98 99 98 98 90 82 86 98 100 100 100 100
83 96 100 100 98 92 94 97 99 100 100 100 100 100 100 96 98 100 100 99 99 99 99 99 98 94 94 97 99 99 99 99 99 100 91 88 92 93 99 98 97 98 99
81 95 100 99 100 99 100 100 100 100 100 100 100 100 100 98 100 100 100 100 98 95 96 99 96 93 95 99 99 99 100 100 100 100 98 93 98 99 100 98 99 97 99
85 97 99 99 99 100 100 100 100 100 100 100 100 100 100 99 99 100 100 100 100 100 100 100 100 99 99 99 100 100 100 99 99 100 100 100 100 99 100 96 100 99 99
89 99 99 99 99 100 100 100 100 100 100 100 100 100 100 99 100 100 100 100 100 100 99 99 99 99 100 99 100 100 99 99 97 100 100 99 100 99 100 100 100 99 100
96 100 99 99 99 99 100 100 100 100 100 100 100 100 100 100 100 100 99 99 99 99 98 99 99 100 100 100 99 96 94 98 95 93 95 100 100 100 99 100 99 100 99
93 99 99 100 100 100 100 100 99 99 96 94 97 98 99 97 97 96 94 91 89 87 84 82 78 75 82 90 94 94 94 89 97 95 90 89 95 93 98 98 100 100 97
94 96 97 98 97 96 96 96 92 85 80 73 66 62 58 56 56 53 52 51 50 48 46 45 43 42 41 41 46 68 79 87 86 90 90 88 83 80 82 88 92 96 93

GFSGL_925_rhum_045.txt.gz
RH
73 72 72 75 73 73 76 74 69 54 52 52 55 57 63 64 66 77 79 84 92 91 91 89 88 90 79 76 77 74 71 68 57 48 57 59 52 47 46 44 41 41 49
68 71 72 72 74 75 75 76 75 58 52 54 59 56 61 65 73 79 83 78 86 86 86 91 88 82 92 88 82 84 76 75 70 65 56 57 62 62 48 48 47 54 50
65 69 70 71 75 75 75 75 77 60 53 58 65 60 71 65 71 69 67 81 84 83 81 85 86 86 88 78 83 77 76 83 81 77 67 63 64 63 62 60 58 55 51
61 65 70 73 74 74 76 78 80 60 56 60 63 67 73 71 76 76 79 83 82 83 84 84 84 85 87 86 84 85 83 82 75 81 71 64 65 67 72 68 61 57 59
65 66 70 74 75 77 80 81 80 76 63 58 66 73 77 75 70 77 79 82 84 84 85 86 86 82 76 72 80 79 85 86 78 71 68 66 63 62 63 61 62 62 64
68 68 70 76 78 80 82 84 85 81 76 79 81 79 80 73 64 65 62 75 83 87 83 83 84 72 64 61 62 65 75 84 87 79 68 66 73 76 71 73 72 71 66
69 71 74 79 81 83 84 86 88 85 83 84 84 82 82 78 63 58 56 66 71 76 82 83 82 73 77 79 83 71 69 70 77 83 87 84 83 83 85 89 85 82 80
71 73 76 80 82 84 86 88 89 86 88 88 86 86 85 82 72 62 62 63 76 76 76 75 78 76 75 79 81 80 80 81 89 87 89 79 88 90 94 94 96 98 97
71 73 77 81 83 84 87 88 87 87 87 87 87 89 90 85 74 60 65 84 81 84 80 80 82 81 80 80 85 81 80 82 81 86 87 87 91 91 95 100 100 100 96
69 72 76 81 83 86 87 89 89 88 85 83 84 88 89 88 86 67 69 81 78 79 82 87 88 86 86 86 89 89 87 86 86 87 90 96 95 89 90 99 100 100 100
67 72 80 83 85 86 88 90 89 90 83 90 85 86 89 91 88 77 69 88 78 75 77 75 79 84 85 81 82 93 93 91 92 99 100 99 98 99 99 100 99 98 100
74 77 83 85 81 82 89 90 90 90 91 90 90 88 85 92 92 88 78 83 87 86 82 79 82 87 88 85 89 90 89 90 99 100 100 100 100 100 100 99 99 99 99
79 81 83 85 85 82 90 90 88 91 80 83 80 79 77 81 89 92 87 83 88 93 89 86 87 90 93 94 94 95 98 100 100 100 100 100 100 99 97 93 95 85 82
78 80 83 85 85 83 85 83 79 79 80 75 75 76 75 77 85 86 95 95 95 98 96 95 98 98 98 100 100 100 100 100 100 100 100 99 99 94 80 73 72 74 77
72 73 77 77 84 83 78 77 77 76 74 73 74 75 76 78 80 84 88 97 92 89 94 100 100 100 100 100 100 100 100 100 99 99 93 83 78 74 70 73 76 74 71
81 74 67 65 75 76 91 95 91 90 87 84 81 81 84 84 85 86 92 99 99 100 100 100 100 100 100 100 98 97 96 89 87 84 80 77 74 73 74 72 75 74 76
85 83 96 97 94 81 78 80 91 99 99 87 88 87 91 87 93 97 99 98 100 100 99 100 97 92 90 87 89 82 76 82 93 83 82 80 77 74 78 75 72 72 72
87 77 50 98 92 95 92 86 84 93 94 100 100 99 100 100 98 97 95 91 88 86 88 95 98 95 94 83 84 82 84 91 96 98 93 83 80 78 76 75 77 93 96
85 84 88 99 100 97 86 83 81 88 90 100 100 95 85 78 75 72 74 83 90 96 99 99 99 98 100 99 98 98 98 98 99 98 99 92 86 84 82 95 95 96 94
87 99 99 100 97 89 85 82 81 83 90 90 96 100 99 85 90 99 100 100 100 100 100 99 99 98 96 97 97 98 99 99 99 99 99 98 98 99 97 91 92 93 96
82 99 99 96 96 98 96 96 99 100 100 100 100 100 100 100 100 100 97 98 99 100 100 99 97 93 93 95 96 96 94 93 92 94 98 97 99 99 99 100 97 90 93
86 92 97 95 97 97 98 100 100 100 100 100 100 100 99 99 99 99 100 99 99 99 99 99 96 94 94 94 95 97 98 97 95 96 99 98 98 99 98 99 99 96 96
87 91 96 95 97 98 96 98 100 100 100 100 100 100 99 100 100 100 99 99 100 100 100 100 100 100 99 97 95 93 94 95 98 97 99 99 100 99 99 99 100 99 99
91 91 95 97 98 97 97 99 100 100 100 100 100 100 100 100 100 100 100 100 100 100 99 96 98 98 95 91 88 86 94 91 95 98 98 98 97 99 100 99 100 99 99
93 94 95 98 98 99 100 100 99 98 99 99 100 100 100 100 99 95 91 88 82 77 72 67 62 64 64 62 57 61 75 88 88 91 98 99 96 92 92 94 98 98 98
92 96 98 98 99 99 99 100 99 98 96 94 90 87 80 72 68 64 64 58 56 57 56 55 56 56 53 46 28 29 32 46 68 82 90 89 97 97 95 91 86 86 96

GFSGL_925_rhum_048.txt.gz
RH
62 61 61 62 63 68 65 66 70 68 65 70 64 63 65 70 72 77 73 64 75 75 72 69 75 75 62 53 54 53 52 50 46 38 36 38 56 67 60 58 58 60 52
58 64 64 62 62 61 69 66 70 73 71 71 68 68 64 64 69 75 75 63 72 73 72 73 73 68 76 74 61 60 52 51 51 54 50 48 47 50 58 68 66 53 46
55 59 58 60 61 61 66 68 70 74 74 68 68 70 68 63 67 72 73 71 68 70 70 70 71 73 75 66 65 59 56 63 64 64 59 51 48 49 53 60 64 61 63
49 52 56 60 60 61 64 69 68 72 75 72 67 69 70 65 62 66 69 71 69 67 70 70 70 72 74 76 77 75 73 72 60 60 53 46 42 42 48 53 55 52 49
46 48 54 61 61 63 66 69 70 71 74 73 68 68 70 65 58 62 63 64 68 69 67 71 71 72 74 76 70 66 67 68 58 51 48 46 45 45 47 50 54 53 52
48 51 53 65 67 68 69 74 75 74 75 75 69 68 69 63 53 56 58 58 62 67 68 69 70 72 78 79 78 68 67 75 75 67 56 52 60 61 55 56 54 55 56
53 57 58 67 72 73 73 77 77 78 74 76 72 69 71 70 60 56 58 59 55 61 65 66 64 54 61 68 71 78 79 75 79 85 83 76 73 70 72 76 70 73 78
59 63 63 70 74 76 77 78 80 76 76 77 75 74 74 71 69 66 62 67 65 63 61 62 66 64 60 61 64 64 66 68 72 77 88 87 84 81 85 88 90 92 88
61 66 68 71 74 75 77 78 77 76 76 75 74 77 78 76 68 68 70 73 68 72 69 67 67 68 68 70 72 70 68 67 61 63 66 70 76 82 87 94 98 95 94
62 66 69 72 74 75 77 78 79 77 74 70 71 74 76 76 78 75 74 70 61 62 64 72 72 72 71 74 77 73 73 70 70 71 78 81 86 87 90 100 100 100 100
59 61 67 72 76 75 79 80 81 78 68 76 69 70 73 77 76 81 80 80 61 54 54 50 53 59 67 72 78 83 80 80 83 84 85 84 80 88 97 99 100 100 100
59 61 68 73 70 70 79 80 79 78 79 77 77 72 67 74 77 81 83 83 72 63 55 48 56 64 71 77 82 86 88 90 92 87 95 99 100 99 98 98 95 95 96
60 65 69 72 72 67 78 81 79 81 69 72 68 66 59 59 72 76 78 84 86 84 71 67 70 76 83 86 88 90 93 98 98 100 100 99 99 99 97 95 86 84 79
66 68 70 74 74 68 74 74 69 66 67 58 58 56 54 54 58 63 82 89 89 91 88 84 83 86 87 91 93 98 97 100 100 100 100 100 98 97 80 69 58 56 56
68 68 69 70 76 72 68 69 63 59 58 57 53 53 53 53 55 61 63 72 78 86 84 85 83 87 92 99 99 99 99 100 99 99 98 93 75 68 60 55 58 57 55
68 64 60 58 65 65 70 76 80 85 78 66 63 59 62 61 66 70 75 79 82 88 98 96 99 100 100 100 100 100 100 97 93 87 75 67 62 57 57 58 59 61 59
73 63 58 55 66 79 82 84 81 80 91 83 76 72 78 74 79 81 85 90 97 100 100 100 100 100 100 100 96 91 85 81 82 68 64 62 62 60 63 58 59 58 59
83 89 75 65 74 75 66 67 74 82 85 83 92 87 86 88 88 89 95 99 99 97 95 97 96 93 90 83 78 72 70 76 84 86 81 67 63 62 61 63 67 73 70
77 68 60 72 71 76 46 42 38 68 79 98 100 100 100 100 100 99 96 82 74 74 77 81 82 87 91 97 97 98 96 94 89 89 90 79 81 82 74 78 79 87 85
85 98 96 98 96 89 84 75 77 77 87 96 96 98 96 84 81 84 85 90 94 95 88 88 87 94 98 95 95 97 96 97 99 99 99 97 91 89 89 86 83 88 89
75 91 95 95 92 88 79 77 78 85 90 99 100 91 82 80 79 78 78 83 85 90 92 85 88 88 88 91 92 92 91 89 88 87 84 83 86 88 89 91 91 90 92
78 76 84 90 98 96 96 95 98 98 100 98 98 94 86 81 82 83 88 87 92 93 96 92 85 85 87 87 86 81 78 77 78 78 77 78 82 87 96 99 97 96 91
83 75 78 75 87 97 98 99 99 99 99 97 91 85 80 83 90 88 97 95 95 94 96 95 92 86 85 83 80 74 70 71 79 89 87 82 76 78 90 98 100 98 95
85 84 78 80 83 82 85 94 99 98 98 98 97 91 89 88 93 98 99 99 96 93 90 88 83 76 72 64 62 61 72 84 82 79 87 79 76 77 84 88 87 96 98
89 88 88 89 85 86 91 94 96 97 98 98 99 98 98 96 96 95 93 89 80 72 63 56 54 54 53 50 49 44 38 54 74 80 77 74 76 84 83 88 84 84 86
76 87 87 93 93 92 94 98 99 98 95 90 88 85 82 76 74 70 65 60 54 53 49 48 47 45 40 40 27 21 19 20 34 68 69 60 62 63 71 75 77 78 80